• Processing (Info)

  • MPEC 2020-V81 : 2020 VY1

    The following Minor Planet Electronic Circular may be linked-to from your own Web pages, but must not otherwise be redistributed electronically.

    A form allowing access to any MPEC is at the bottom of this page.


    Read MPEC 2020-V80 Read MPEC 2020-V82


    M.P.E.C. 2020-V81                             Issued 2020 November 12, 02:45 UT
    
         The Minor Planet Electronic Circulars contain information on unusual
             minor planets and routine data on comets.  They are published
        on behalf of Division F of the International Astronomical Union by the
              Minor Planet Center, Smithsonian Astrophysical Observatory,
                              Cambridge, MA 02138, U.S.A.
    
                 Prepared using the Tamkin Foundation Computer Network
    
                                  MPC@CFA.HARVARD.EDU
                URL https://www.minorplanetcenter.net/    ISSN 1523-6714
    
                                    2020 VY1                                 
    
    
    Observations:
         K20V01Y* C2020 11 10.36791201 02 44.724+06 40 48.91         21.81wUEV081F51
         K20V01Y  C2020 11 10.38829101 02 44.273+06 40 08.75         22.75wUEV081F51
         K20V01Y  C2020 11 10.39813001 02 44.060+06 39 49.10         22.43wUEV081F51
         K20V01Y KC2020 11 11.21830 01 02 57.05 +06 12 19.1          22.6 RoEV081291
         K20V01Y KC2020 11 11.23041 01 02 56.84 +06 11 54.4          22.9 RoEV081291
         K20V01Y KC2020 11 11.24250 01 02 56.64 +06 11 29.7          22.0 RoEV081291
         K20V01Y ^C2020 11 11.44075601 02 57.284+06 05 00.72         22.19GVEV081568
         K20V01Y ^C2020 11 11.44170501 02 57.272+06 04 58.81         22.17GVEV081568
         K20V01Y ^C2020 11 11.44265401 02 57.262+06 04 56.82         22.05GVEV081568
         K20V01Y ^C2020 11 11.44693201 02 57.215+06 04 47.83         22.16GVEV081568
         K20V01Y ^C2020 11 11.44788001 02 57.206+06 04 45.84         22.42GVEV081568
         K20V01Y ^C2020 11 11.44882601 02 57.199+06 04 43.82         22.02GVEV081568
         K20V01Y |C2020 11 12.04665 01 03 13.75 +05 45 22.9          22.0 GVEV081807
         K20V01Y |C2020 11 12.05419 01 03 13.65 +05 45 07.3          22.1 GVEV081807
         K20V01Y |C2020 11 12.06155 01 03 13.56 +05 44 51.9          22.1 GVEV081807
    
    Observer details:
    291 LPL/Spacewatch II.  Observer J. V. Scotti.  1.8-m f/2.7 reflector + CCD.
    568 Mauna Kea.  Observers R. Wainscoat, L. Wells, T. Burdullis.  Measurers R.
        Weryk, R. Wainscoat.  3.6-m Canada-France-Hawaii Telescope + CCD.
    807 Cerro Tololo Observatory, La Serena.  Observers T. Linder, R. Holmes.
        1.00-m f/10.0 astrograph + CCD.
    F51 Pan-STARRS 1, Haleakala.  Observers J. Bulger, T. Lowe, A. Schultz, M.
        Willman.  Measurers K. Chambers, S. Chastel, T. de Boer, L. Denneau, J.
        Fairlamb, H. Flewelling, M. Huber, C.-C. Lin, E. Magnier, Y. Ramanjooloo,
        R. Wainscoat, R. Weryk.  1.8-m Ritchey-Chretien + CCD.
    
    Orbital elements:
    2020 VY1                                                 Earth MOID = 0.0309 AU
    Epoch 2020 Dec. 17.0 TT = JDT 2459200.5                 Veres
    M 357.00264              (2000.0)            P               Q
    n   0.53489794     Peri.  226.24831     -0.02308075     -0.99913013
    a   1.5029877      Node   225.10950     +0.93074816     -0.00879381
    e   0.3384823      Incl.    2.80999     +0.36493169     -0.04076337
    P   1.84           H   26.0           G   0.15           U   7
    Residuals in seconds of arc
    201110 F51  0.0   0.0     201111 291  0.0   0.6+    201111 568  0.0   0.4-
    201110 F51  0.0   0.1+    201111 568  0.0   0.3-    201111 568  0.0   0.4-
    201110 F51  0.0   0.1-    201111 568  0.0   0.3-    201112 807  0.1+  0.1+
    201111 291  0.2+  0.7+    201111 568  0.0   0.3-    201112 807  0.1-  0.2+
    201111 291  0.0   0.6+    201111 568  0.0   0.4-    201112 807  0.1-  0.1+
    
    Ephemeris:
    2020 VY1                 a,e,i = 1.50, 0.34, 3                   q = 0.9943
    Date    TT    R. A. (2000) Decl.     Delta      r    Elong.  Phase     V
    2020 10 13    01 13 04.7 +15 25 56   0.2022  1.1985   172.3     6.4    23.4
    ...
    2020 10 28    01 05 26.4 +12 15 18   0.1414  1.1303   164.3    13.8    22.8
    ...
    2020 11 05    01 02 46.2 +09 18 07   0.1155  1.0974   155.2    22.3    22.6
    ...
    2020 11 11    01 02 53.9 +06 20 19   0.09836 1.0749   148.2    29.1    22.4
    2020 11 12    01 03 11.1 +05 46 09   0.09566 1.0713   147.0    30.2    22.4
    2020 11 13    01 03 33.9 +05 10 31   0.09300 1.0678   145.8    31.4    22.3
    ...
    2020 11 19    01 08 18.5 +01 01 20   0.07788 1.0483   139.0    38.2    22.1
    ...
    2020 11 27    01 24 26.0 -06 45 58   0.05965 1.0263   130.4    47.1    21.7
    ...
    2020 12 12    03 15 29.6 -35 26 15   0.03534 0.9999   114.8    63.4    21.0
    
    M. P. C. Staff               (C) Copyright 2020 MPC           M.P.E.C. 2020-V81
    


    Read MPEC 2020-V80 Read MPEC 2020-V82


    MPEC number:

    Enter an MPEC number in one of the following forms:

    • 1997-B01 (the full form)
    • J97B01 (the packed version of the full form)
    • B01 (the abbreviated form)